• In Austria
  • List of Countries
  • For 7 days
  • Water Temperature
  • Satellite Maps
  • Weather Map
  • News
  • Weather Widgets
  • user-avatar
    Login

    Hourly Weather Fedkovo

    Today, 25 September, Tuesday

    Time Temperature Precipitation Wind Pressure Humidity
    00:00 +6°C° 0.2 mm 5 mps 733 mmHg 92%
    01:00 +6°C° 0.2 mm 5 mps 734 mmHg 91%
    02:00 +6°C° 0.2 mm 5 mps 734 mmHg 90%
    03:00 +5°C° 0 mm 5 mps 735 mmHg 90%
    04:00 +3°C° 0 mm 5 mps 736 mmHg 91%
    05:00 +3°C° 0 mm 5 mps 736 mmHg 91%
    06:00 +3°C° 0 mm 5 mps 737 mmHg 89%
    07:00 +5°C° 0 mm 5 mps 738 mmHg 88%
    08:00 +5°C° 0 mm 5 mps 739 mmHg 86%
    09:00 +6°C° 0 mm 5 mps 739 mmHg 82%
    10:00 +6°C° 0 mm 5 mps 740 mmHg 77%
    11:00 +7°C° 0 mm 5 mps 741 mmHg 72%
    12:00 +8°C° 0.1 mm 6 mps 741 mmHg 68%
    13:00 +8°C° 0.1 mm 6 mps 742 mmHg 64%
    14:00 +9°C° 0.1 mm 6 mps 742 mmHg 60%
    15:00 +8°C° 0.1 mm 5 mps 743 mmHg 63%
    16:00 +7°C° 0.1 mm 5 mps 744 mmHg 67%
    17:00 +6°C° 0.1 mm 4 mps 744 mmHg 70%
    18:00 +5°C° 0 mm 4 mps 745 mmHg 73%
    19:00 +5°C° 0 mm 4 mps 746 mmHg 75%
    20:00 +4°C° 0 mm 4 mps 746 mmHg 77%
    21:00 +3°C° 0 mm 4 mps 747 mmHg 76%
    22:00 +3°C° 0 mm 4 mps 748 mmHg 75%
    23:00 +1°C° 0 mm 4 mps 748 mmHg 74%

    Tomorrow, 26 September, Wednesday

    Time Temperature Precipitation Wind Pressure Humidity
    00:00 +2°C° 0 mm 3 mps 749 mmHg 76%
    01:00 +1°C° 0 mm 3 mps 749 mmHg 77%
    02:00 +1°C° 0 mm 3 mps 750 mmHg 78%
    03:00 +1°C° 0 mm 3 mps 750 mmHg 81%
    04:00 +2°C° 0 mm 2 mps 751 mmHg 83%
    05:00 +2°C° 0 mm 2 mps 751 mmHg 86%
    06:00 +2°C° 0 mm 3 mps 751 mmHg 84%
    07:00 +3°C° 0 mm 3 mps 752 mmHg 82%
    08:00 +3°C° 0 mm 3 mps 752 mmHg 81%
    09:00 +5°C° 0 mm 3 mps 751 mmHg 72%
    10:00 +7°C° 0 mm 4 mps 751 mmHg 64%
    11:00 +10°C° 0 mm 4 mps 751 mmHg 56%
    12:00 +10°C° 0 mm 5 mps 750 mmHg 53%
    13:00 +10°C° 0 mm 5 mps 750 mmHg 51%
    14:00 +10°C° 0 mm 5 mps 749 mmHg 49%
    15:00 +10°C° 0 mm 5 mps 748 mmHg 55%
    16:00 +9°C° 0 mm 5 mps 747 mmHg 62%
    17:00 +8°C° 0 mm 5 mps 747 mmHg 68%
    18:00 +7°C° 0.9 mm 6 mps 746 mmHg 75%
    19:00 +7°C° 0.9 mm 6 mps 745 mmHg 81%
    20:00 +5°C° 0.9 mm 7 mps 744 mmHg 87%
    21:00 +5°C° 1.7 mm 7 mps 742 mmHg 88%
    22:00 +5°C° 1.7 mm 7 mps 741 mmHg 89%
    23:00 +5°C° 1.7 mm 8 mps 740 mmHg 90%

    Day after tomorrow, 27 September, Thursday

    Time Temperature Precipitation Wind Pressure Humidity
    00:00 +6°C° 1 mm 7 mps 739 mmHg 90%
    01:00 +6°C° 1 mm 7 mps 738 mmHg 91%
    02:00 +6°C° 1 mm 7 mps 737 mmHg 91%
    03:00 +8°C° 1.1 mm 6 mps 737 mmHg 91%
    04:00 +8°C° 1.1 mm 5 mps 737 mmHg 92%
    05:00 +8°C° 1.1 mm 4 mps 737 mmHg 93%
    06:00 +8°C° 0.1 mm 4 mps 737 mmHg 90%
    07:00 +8°C° 0.1 mm 5 mps 737 mmHg 87%
    08:00 +8°C° 0.1 mm 5 mps 738 mmHg 84%
    09:00 +8°C° 0 mm 5 mps 738 mmHg 76%
    10:00 +9°C° 0 mm 6 mps 738 mmHg 69%
    11:00 +10°C° 0 mm 6 mps 739 mmHg 62%
    12:00 +10°C° 0 mm 6 mps 739 mmHg 58%
    13:00 +10°C° 0 mm 6 mps 739 mmHg 55%
    14:00 +11°C° 0 mm 6 mps 740 mmHg 52%
    15:00 +10°C° 0 mm 5 mps 740 mmHg 56%
    16:00 +10°C° 0 mm 4 mps 740 mmHg 61%
    17:00 +9°C° 0 mm 3 mps 740 mmHg 65%
    18:00 +9°C° 0 mm 3 mps 741 mmHg 67%
    19:00 +8°C° 0 mm 3 mps 741 mmHg 70%
    20:00 +7°C° 0 mm 3 mps 741 mmHg 72%
    21:00 +5°C° 0 mm 3 mps 741 mmHg 74%
    22:00 +5°C° 0 mm 3 mps 741 mmHg 76%
    23:00 +4°C° 0 mm 3 mps 742 mmHg 78%

    28 September, Friday

    Time Temperature Precipitation Wind Pressure Humidity
    00:00 +4°C° 0 mm 3 mps 741 mmHg 79%
    01:00 +5°C° 0 mm 2 mps 740 mmHg 80%
    02:00 +5°C° 0 mm 2 mps 740 mmHg 81%
    03:00 +5°C° 1.4 mm 3 mps 738 mmHg 85%
    04:00 +6°C° 1.4 mm 4 mps 737 mmHg 88%
    05:00 +6°C° 1.4 mm 5 mps 735 mmHg 92%
    06:00 +8°C° 2 mm 6 mps 734 mmHg 91%
    07:00 +9°C° 2 mm 6 mps 733 mmHg 91%
    08:00 +11°C° 2 mm 7 mps 732 mmHg 90%
    09:00 +9°C° 1.1 mm 6 mps 733 mmHg 90%
    10:00 +8°C° 1.1 mm 6 mps 733 mmHg 89%
    11:00 +7°C° 1.1 mm 5 mps 734 mmHg 89%
    12:00 +7°C° 0.1 mm 5 mps 736 mmHg 87%
    13:00 +6°C° 0.1 mm 5 mps 737 mmHg 85%
    14:00 +6°C° 0.1 mm 5 mps 739 mmHg 83%
    15:00 +6°C° 0.1 mm 4 mps 740 mmHg 82%
    16:00 +5°C° 0.1 mm 3 mps 741 mmHg 82%
    17:00 +5°C° 0.1 mm 3 mps 742 mmHg 82%
    18:00 +5°C° 0 mm 2 mps 743 mmHg 84%
    19:00 +4°C° 0 mm 2 mps 743 mmHg 86%
    20:00 +4°C° 0 mm 1 mps 744 mmHg 89%
    21:00 +4°C° 0 mm 1 mps 744 mmHg 90%
    22:00 +3°C° 0 mm 2 mps 744 mmHg 91%
    23:00 +2°C° 0 mm 2 mps 744 mmHg 92%

    29 September, Saturday

    Time Temperature Precipitation Wind Pressure Humidity
    00:00 +3°C° 0 mm 2 mps 744 mmHg 92%
    01:00 +3°C° 0 mm 2 mps 745 mmHg 92%
    02:00 +2°C° 0 mm 3 mps 745 mmHg 92%
    03:00 +3°C° 0 mm 3 mps 745 mmHg 93%
    04:00 +3°C° 0 mm 3 mps 745 mmHg 93%
    05:00 +3°C° 0 mm 3 mps 745 mmHg 94%
    06:00 +3°C° 0.1 mm 3 mps 746 mmHg 92%
    07:00 +4°C° 0.1 mm 3 mps 746 mmHg 90%
    08:00 +4°C° 0.1 mm 3 mps 747 mmHg 88%
    09:00 +5°C° 0 mm 3 mps 747 mmHg 80%
    10:00 +6°C° 0 mm 2 mps 748 mmHg 71%
    11:00 +7°C° 0 mm 2 mps 748 mmHg 63%
    12:00 +8°C° 0 mm 2 mps 748 mmHg 58%
    13:00 +8°C° 0 mm 2 mps 748 mmHg 52%
    14:00 +8°C° 0 mm 2 mps 749 mmHg 47%
    15:00 +8°C° 0 mm 2 mps 749 mmHg 53%
    16:00 +8°C° 0 mm 1 mps 749 mmHg 59%
    17:00 +7°C° 0 mm 1 mps 749 mmHg 66%
    18:00 +6°C° 0 mm 1 mps 750 mmHg 69%
    19:00 +5°C° 0 mm 1 mps 750 mmHg 72%
    20:00 +4°C° 0 mm 1 mps 751 mmHg 75%
    21:00 +3°C° 0 mm 1 mps 751 mmHg 76%
    22:00 +3°C° 0 mm 1 mps 751 mmHg 78%
    23:00 +3°C° 0 mm 1 mps 751 mmHg 79%

    30 September, Sunday

    Time Temperature Precipitation Wind Pressure Humidity
    00:00 +2°C° 0 mm 2 mps 751 mmHg 80%
    01:00 +1°C° 0 mm 2 mps 751 mmHg 80%
    02:00 +1°C° 0 mm 2 mps 751 mmHg 81%
    03:00 +1°C° 0 mm 2 mps 751 mmHg 80%
    04:00 +1°C° 0 mm 2 mps 751 mmHg 80%
    05:00 +1°C° 0 mm 2 mps 751 mmHg 80%
    06:00 +2°C° 0 mm 2 mps 751 mmHg 76%
    07:00 +2°C° 0 mm 3 mps 751 mmHg 72%
    08:00 +3°C° 0 mm 3 mps 751 mmHg 67%
    09:00 +4°C° 0 mm 3 mps 750 mmHg 64%
    10:00 +5°C° 0 mm 3 mps 750 mmHg 60%
    11:00 +6°C° 0 mm 4 mps 750 mmHg 56%
    12:00 +7°C° 0 mm 4 mps 749 mmHg 54%
    13:00 +8°C° 0 mm 4 mps 749 mmHg 52%
    14:00 +8°C° 0 mm 4 mps 748 mmHg 49%
    15:00 +7°C° 0 mm 4 mps 748 mmHg 54%
    16:00 +7°C° 0 mm 3 mps 747 mmHg 59%
    17:00 +7°C° 0 mm 3 mps 747 mmHg 64%
    18:00 +5°C° 0 mm 3 mps 747 mmHg 68%
    19:00 +4°C° 0 mm 3 mps 747 mmHg 72%
    20:00 +4°C° 0 mm 3 mps 746 mmHg 76%
    21:00 +4°C° 0 mm 3 mps 746 mmHg 79%
    22:00 +4°C° 0 mm 3 mps 746 mmHg 81%
    23:00 +4°C° 0 mm 3 mps 745 mmHg 84%
    Show more